Location: Unspecified
(0.0000°N, 0.0000°E)
Time: 08:54:41
(UTC+00:00)

Courier 1B - All Passes

Search period start: 17 July 2025 00:00
Search period end: 27 July 2025 00:00
Orbit: 962 x 1208 km, 28.3° (Epoch: 16 July)

Date Brightness Start Highest point End Pass type
(mag) Time Alt. Az. Time Alt. Az. Time Alt. Az.
17 Jul - 04:38:57 10° SSW 04:43:36 20° SSE 04:48:19 10° ESE visible
17 Jul - 06:31:18 10° SW 06:37:48 75° SSE 06:44:37 10° ENE daylight
17 Jul - 08:26:12 10° W 08:32:01 31° NNW 08:38:08 10° NNE daylight
17 Jul - 10:26:21 10° NNW 10:27:14 10° NNW 10:28:08 10° N daylight
17 Jul - 16:10:55 10° NNW 16:16:44 22° NNE 16:22:29 10° ENE daylight
17 Jul - 18:03:44 10° NW 18:11:31 67° NNE 18:19:02 10° ESE daylight
17 Jul - 19:58:51 10° W 20:05:55 39° SSW 20:12:39 10° SE visible
17 Jul - 21:58:17 10° SW 22:00:50 12° SSW 22:03:21 10° S visible
18 Jul - 03:46:06 10° S 03:49:32 15° SSE 03:52:59 10° ESE visible
18 Jul - 05:37:40 10° SW 05:43:57 52° SSE 05:50:25 10° ENE visible
18 Jul - 07:31:51 10° W 07:38:01 42° NNW 07:44:30 10° NE daylight
18 Jul - 09:29:42 10° NW 09:32:53 13° NNW 09:36:07 10° N daylight
18 Jul - 15:17:40 10° NNW 15:22:22 17° NNE 15:27:05 10° ENE daylight
18 Jul - 17:09:50 10° NW 17:17:23 49° NNE 17:24:47 10° ESE daylight
18 Jul - 19:04:15 10° WNW 19:11:50 54° SSW 19:19:06 10° SE visible
18 Jul - 21:02:00 10° WSW 21:06:34 17° SSW 21:10:59 10° SSE visible
19 Jul - 02:54:11 10° S 02:55:22 10° SSE 02:56:33 10° SSE visible
19 Jul - 04:44:10 10° SW 04:50:05 37° SSE 04:56:03 10° E visible
19 Jul - 06:37:43 10° WSW 06:44:06 59° NNW 06:50:45 10° NE daylight
19 Jul - 08:34:20 10° WNW 08:38:38 18° NNW 08:43:04 10° NNE daylight
19 Jul - 14:24:52 10° N 14:27:56 13° NNE 14:31:00 10° NE daylight
19 Jul - 16:16:07 10° NW 16:23:13 37° NNE 16:30:16 10° E daylight
19 Jul - 18:09:53 10° WNW 18:17:44 73° SSW 18:25:21 10° SE daylight
19 Jul - 20:06:29 10° WSW 20:12:20 23° SSW 20:17:58 10° SSE visible
20 Jul - 03:50:50 10° SSW 03:56:10 26° SSE 04:01:28 10° E visible
20 Jul - 05:43:47 10° WSW 05:50:16 84° NNW 05:56:55 10° ENE daylight
20 Jul - 07:39:25 10° WNW 07:44:31 23° NNW 07:49:47 10° NNE daylight
20 Jul - 15:22:35 10° NNW 15:28:59 28° NNE 15:35:26 10° E daylight
20 Jul - 17:15:44 10° WNW 17:23:38 84° NNE 17:31:24 10° ESE daylight
20 Jul - 19:11:24 10° W 19:18:08 31° SSW 19:24:41 10° SSE visible
21 Jul - 02:57:39 10° SSW 03:02:10 19° SSE 03:06:36 10° ESE visible
21 Jul - 04:49:58 10° SW 04:56:26 70° SSE 05:02:56 10° ENE visible
21 Jul - 06:44:50 10° W 06:50:30 32° NNW 06:56:22 10° NNE daylight
21 Jul - 14:29:15 10° NNW 14:34:43 21° NNE 14:40:15 10° ENE daylight
21 Jul - 16:21:46 10° NW 16:29:30 63° NNE 16:37:14 10° ESE daylight
21 Jul - 18:16:38 10° W 18:23:59 43° SSW 18:31:10 10° SE visible
21 Jul - 20:15:19 10° SW 20:19:00 14° SSW 20:22:37 10° S visible
22 Jul - 02:04:43 10° S 02:08:02 14° SSE 02:11:19 10° SE visible
22 Jul - 03:56:19 10° SW 04:02:36 48° SSE 04:08:48 10° ENE visible
22 Jul - 05:50:29 10° W 05:56:36 44° NNW 06:02:49 10° NE daylight
22 Jul - 07:48:19 10° NW 07:51:15 13° NNW 07:54:13 10° N daylight
22 Jul - 13:36:14 10° N 13:40:23 15° NNE 13:44:35 10° ENE daylight
22 Jul - 15:28:00 10° NW 15:35:21 46° NNE 15:42:49 10° E daylight
22 Jul - 17:22:09 10° WNW 17:29:50 58° SSW 17:37:28 10° SE daylight
22 Jul - 19:19:27 10° WSW 19:24:40 19° SSW 19:29:46 10° SSE visible
23 Jul - 01:12:41 10° S 01:13:49 10° SSE 01:14:56 10° SSE night (unlit)
23 Jul - 03:02:46 10° SW 03:08:42 34° SSE 03:14:30 10° E visible
23 Jul - 04:56:20 10° WSW 05:02:45 63° NNW 05:09:11 10° NE visible
23 Jul - 06:52:54 10° WNW 06:57:05 18° NNW 07:01:21 10° NNE daylight
23 Jul - 12:44:03 10° N 12:45:59 11° NNE 12:47:55 10° NE daylight
23 Jul - 14:34:25 10° NW 14:41:12 34° NNE 14:48:09 10° E daylight
23 Jul - 16:27:54 10° WNW 16:35:42 78° SSW 16:43:35 10° SE daylight
23 Jul - 18:24:08 10° W 18:30:22 26° SSW 18:36:33 10° SSE visible
24 Jul - 02:09:20 10° SSW 02:14:44 25° SSE 02:19:58 10° E visible
24 Jul - 04:02:20 10° WSW 04:08:55 89° NNW 04:15:24 10° ENE visible
24 Jul - 05:57:58 10° W 06:03:03 24° NNW 06:08:12 10° NNE daylight
24 Jul - 13:41:02 10° NNW 13:47:00 25° NNE 13:53:10 10° E daylight
24 Jul - 15:33:52 10° NW 15:41:35 79° NNE 15:49:29 10° ESE daylight
24 Jul - 17:29:12 10° W 17:36:09 34° SSW 17:43:05 10° SE daylight
24 Jul - 19:29:05 10° SW 19:31:29 11° SSW 19:33:53 10° S visible
25 Jul - 01:16:02 10° SSW 01:20:39 19° SSE 01:25:08 10° ESE night (unlit)
25 Jul - 03:08:28 10° SW 03:15:05 65° SSE 03:21:29 10° ENE visible
25 Jul - 05:03:20 10° W 05:09:06 33° NNW 05:14:53 10° NE visible
25 Jul - 12:47:55 10° NNW 12:52:47 18° NNE 12:57:47 10° ENE daylight
25 Jul - 14:40:03 10° NW 14:47:29 58° NNE 14:55:12 10° ESE daylight
25 Jul - 16:34:35 10° W 16:41:57 46° SSW 16:49:25 10° SE daylight
25 Jul - 18:32:41 10° WSW 18:37:02 16° SSW 18:41:22 10° SSE visible
26 Jul - 00:22:57 10° S 00:26:28 14° SSE 00:29:54 10° SE night (unlit)
26 Jul - 02:14:43 10° SW 02:21:12 46° SSE 02:27:24 10° E visible
26 Jul - 04:08:56 10° WSW 04:15:14 47° NNW 04:21:25 10° NE visible
26 Jul - 06:06:44 10° NW 06:09:43 13° NNW 06:12:43 10° N daylight
26 Jul - 11:55:15 10° N 11:58:30 13° NNE 12:01:48 10° NE daylight
26 Jul - 13:46:26 10° NW 13:53:23 43° NNE 14:00:39 10° E daylight
26 Jul - 15:40:14 10° WNW 15:47:48 62° SSW 15:55:35 10° SE daylight
26 Jul - 17:37:06 10° WSW 17:42:40 21° SSW 17:48:14 10° SSE daylight
26 Jul - 23:30:28 10° S 23:32:08 11° SSE 23:33:47 10° SSE night (unlit)
